Flag for Finland Weather past 2 weeks in Espoo, Finland

Now
34 °F

Light rain. Partly sunny.


Feels Like: 25 °F
Forecast: 33 / 38 °F
Wind: 12 mph from East

Location: Helsinki-Vantaa

Current Time: Mar 3, 2015 at 3:00:43 PM

Latest Report: Mar 3, 2015 at 2:20 PM


Visibility: N/A

Pressure: 29.47 "Hg

Humidity: 93%

Dew point: 32 °F

Location of EspooLocation

Historic Weather in Espoo — Graph

°F

Espoo temperature yesterday

Maximum temperature yesterday: 37 °F (at 5:50 AM)
Minimum temperature yesterday: 34 °F (at 8:20 PM)
Average temperature yesterday: 36 °F

Past Weeks' High & Low Weather Summary

 TemperatureHumidityPressure
High39 °F (Feb 19, 7:20 PM)100% (Feb 19, 1:50 AM)30.74 "Hg (Feb 19, 1:50 AM)
Low25 °F (Feb 16, 6:20 PM)46% (Feb 16, 8:20 PM)29.18 "Hg (Feb 22, 8:20 AM)
Average34 °F87%29.81 "Hg
* Reported Feb 16 1:20 PM — Mar 3 1:50 PM, Espoo, Weather by CustomWeather, © 2015

Note: Actual official high and low records may vary slightly from our data, if they occured in-between our weather recording intervals... More about our weather records

Advertising

Espoo weather history for previous 24 hours

 ConditionsComfort  
Time TempWeatherWind HumidityBarometerVisibility
1:50 PM
Tue, Mar 3
34 °FLight rain. Broken clouds.12 mph93%29.47 "Hg2 mi
1:20 PM34 °FRain. Partly sunny.12 mph93%29.47 "Hg1 mi
12:50 PM36 °FLight rain. Partly sunny.14 mph93%29.47 "Hg4 mi
12:20 PM37 °FLight rain. Partly sunny.13 mph87%29.47 "Hg5 mi
11:50 AM36 °FLight rain. Partly sunny.13 mph93%29.47 "Hg5 mi
11:20 AM36 °FLight rain. Partly sunny.14 mph93%29.47 "HgN/A
10:50 AM36 °FLight rain. Partly sunny.14 mph100%29.50 "HgN/A
10:20 AM36 °FLight rain. Partly sunny.12 mph100%29.50 "Hg5 mi
9:50 AM36 °FLight rain. Fog.9 mph93%29.50 "Hg1 mi
9:20 AM34 °FFog.9 mph100%29.50 "Hg1 mi
8:50 AM36 °FFog.14 mph93%29.50 "Hg1 mi
8:20 AM36 °FFog.8 mph100%29.50 "Hg2 mi
7:50 AM36 °FFog.6 mph93%29.50 "Hg2 mi
7:20 AM36 °FPartly sunny.6 mph93%29.50 "Hg4 mi
6:50 AM34 °FPartly cloudy.6 mph100%29.50 "Hg4 mi
6:20 AM34 °FFog.7 mph100%29.50 "Hg2 mi
5:50 AM34 °FFog.6 mph100%29.50 "Hg2 mi
5:20 AM36 °FFog.6 mph93%29.50 "Hg2 mi
4:50 AM36 °FFog.7 mph93%29.50 "Hg1 mi
4:20 AM36 °FFog.6 mph93%29.50 "Hg1 mi
3:50 AM34 °FFog.2 mph100%29.50 "Hg1 mi
3:20 AM36 °FFog.5 mph93%29.50 "Hg1 mi
2:50 AM36 °FFog.5 mph93%29.50 "Hg0 mi
2:20 AM36 °FFog.6 mph93%29.50 "Hg1 mi
1:50 AM34 °FFog.3 mph100%29.47 "Hg2 mi
1:20 AM34 °FPassing clouds.3 mph100%29.47 "Hg3 mi
12:50 AM34 °FPassing clouds.3 mph100%29.47 "Hg3 mi
12:20 AM34 °FFog.3 mph100%29.47 "Hg2 mi
11:50 PM
Mon, Mar 2
34 °FLight rain. Fog.1 mph93%29.47 "Hg2 mi
11:20 PM34 °FLight rain. Fog.2 mph93%29.47 "Hg2 mi
10:50 PM34 °FFog.3 mph93%29.45 "Hg2 mi
10:20 PM34 °FLight rain. Fog.3 mph93%29.45 "Hg2 mi
9:50 PM34 °FLight rain. Fog.3 mph93%29.45 "Hg2 mi
9:20 PM34 °FLight rain. Fog.3 mph93%29.45 "Hg2 mi
8:50 PM34 °FLight rain. Passing clouds.5 mph100%29.45 "Hg4 mi
8:20 PM34 °FLight rain. Passing clouds.6 mph93%29.45 "Hg4 mi
7:50 PM36 °FLight rain. Passing clouds.10 mph93%29.45 "Hg4 mi
7:20 PM36 °FLight rain. Passing clouds.8 mph93%29.45 "Hg4 mi
6:50 PM36 °FLight rain. Passing clouds.12 mph93%29.45 "Hg4 mi
6:20 PM36 °FLight rain. Partly cloudy.9 mph93%29.45 "Hg3 mi
5:50 PM36 °FLight rain. Passing clouds.8 mph93%29.45 "Hg3 mi
5:20 PM36 °FLight rain. Broken clouds.10 mph93%29.45 "Hg4 mi
4:50 PM36 °FLight rain. Broken clouds.9 mph93%29.45 "Hg3 mi
4:20 PM36 °FLight rain. Partly sunny.10 mph93%29.45 "Hg3 mi
3:50 PM36 °FLight rain. Partly sunny.12 mph93%29.45 "Hg4 mi
3:20 PM36 °FLight rain. Partly sunny.13 mph93%29.45 "Hg4 mi
Weather by CustomWeather, © 2015

See weather overviewHow to use our weather pages